Starlink 32330

operational
NORAD ID: 61850 Int'l Des: 2024-202 Owner: SPXS Country: US Constellation: starlink
LEOCIRCULAR

关于 Starlink 32330

正在加载描述...

实时位置

正在加载3D地球...

即将过境

高度历史

Altitude vs Time

uPlot chart will show altitude changes over time

两行轨道根数

1 61850U 24202F 25307.50583676 .00001080 00000-0 48766-4 0 9991
2 61850 43.0007 230.2554 0001016 284.4498 75.6241 15.27577984 56049
Epoch: Nov 3, 2025 • Age: 25 hours

当前状态

高度 485.4 km
速度 7.63 km/s
星下点 37.08°N, 31.17°E
发射日期 Nov 7, 2024
运行时间 0.9 years
类型 internet

技术详情

分类 Payload
质量 730.00 kg
干质量 700.00 kg
总质量 730.00 kg
长度 0.30 m
直径 4.10 m
跨度 29.00 m
形状 Box + pan
制造商 SPXS
平台类型 Starlink V2M
阶段状态 In Orbit
所有者/国家 SPXS/US

大型星座

Loading constellations...